Location: Paris
(48.6709°N, 2.3750°E)
Time: 11:42:24
(UTC+02:00)

Gurwin Techsat 1B - Pass Details

Date: 03 July 2022
Orbit: 812 x 813 km, 98.8° (Epoch: 07 August)

Event Time Altitude Azimuth Distance (km) Brightness Sun altitude
Rises 04:53:18 0° 12° (NNE) 3,347 13.0 -8.0°
Reaches altitude 10° 04:55:39 10° 10° (N) 2,411 12.1 -7.8°
Maximum altitude 05:00:57 68° 289° (WNW) 873 8.7 -7.2°
Drops below altitude 10° 05:06:12 10° 207° (SSW) 2,395 10.4 -6.6°
Enters shadow 05:06:58 - 206° (SSW) 2,700 10.7 -6.5°
